Location: *
(58.4167°N, 22.5000°E)
Time: 03:49:52
(UTC+00:00)

Landsat 7 - Pass Details

Date: 22 September 2019
Orbit: 701 x 703 km, 98.1° (Epoch: 16 October)

Event Time Altitude Azimuth Distance (km) Brightness Sun altitude
Exits shadow 19:09:43 46° 124° (ESE) 948 4.0 -20.2°
Maximum altitude 19:10:55 63° 67° (ENE) 793 3.9 -20.4°
Drops below altitude 10° 19:15:38 10° 348° (NNW) 2,185 7.1 -20.8°
Sets 19:17:55 0° 345° (NNW) 3,108 8.0 -21.1°
